"Pseudo-MPEC" for P11JonQ

Created 2023 Sep 24 14:22:20 UT using Find_Orb

Click here for an explanation of pseudo-MPECs

 
 Astrometry: 
     P11JonQ* C2023 09 13NBrOul]!j*?\nf4Ly/fvn\(a@Astrometry2^/`''iVML2Dp=,p1F51
     P11JonQ  C2023 09 13r*8Kmredacted;Xn*X/$jn4*OoM_wSquclickI3l/)#here'go-[F51
     P11JonQ  C2023 09 13N/wvm/,rT`^)/fh`?`[CMMRW+ZDTAY\PVYC@eforot?/XsDDY^oaF51
     P11JonQ  C2023 09 132v9C[MA6n!LexplanationD1_BQJkKCU^yN\D-(Va:S!7h(YXwZ+F51
     P11JonQ  C2023 09 13uEjqwo=lr`lFCj-wrd_gq:$9B7rsqWI=!tnp7J=/ec/.S=_K[DlRF51
     P11JonQ KC2023 09 23.29335423 31 35.515-01 12 12.96   ~9N7q 21.37GVNEOCPI52
     P11JonQ KC2023 09 23.29856123 31 35.267-01 12 21.60   ~9N7q 22.04GVNEOCPI52
     P11JonQ KC2023 09 23.30376523 31 34.972-01 12 28.91   ~9N7q 21.28GVNEOCPI52
     P11JonQ KC2023 09 23.30896923 31 34.662-01 12 37.04   ~9N7q 21.25GVNEOCPI52

Station data:
(F51) Pan-STARRS 1, Haleakala  (N20.707234 W156.255910)  US/Hawaii.
   Observers J. Bulger, T. Lowe, A. Schultz, M. Willman. Measurers K.
   Chambers, S. Chastel, T. de Boer, L. Denneau, J. Fairlamb, H. Flewelling,
   M. Huber, C.-C. Lin, E. Magnier, Y. Ramanjooloo, R. Wainscoat, R. Weryk.
   1.8-m Ritchey-Chrétien + CCD.
(I52) Steward Observatory, Mt. Lemmon Station  (N32.442544 W110.788920)
   US/Arizona.  Observers T. A. Pruyne, B. M. Africano, E. J. Christensen, G.
   A. Farneth, D. C. Fuls, A. R. Gibbs, A. D. Grauer, H. Gröller, J. A.
   Johnson, R. A. Kowalski, S. M. Larson, G. J. Leonard, D. Rankin, R. L.
   Seaman, F. C. Shelly, K. W. Wierzchoś. 1.0-m prime focus + CCD.

Orbital elements:  P11JonQ
   Perihelion 2022 Dec 8.58894 +/- 10.6 TT = 14:08:04 (JD 2459922.08894)
Epoch 2023 Sep 23.0 TT = JDT 2460210.5   Earth MOID: 0.7079   Ma: 0.0599
M 120.01865484 +/- 4.0              (J2000 ecliptic)             AutoNEOCP
n   0.41613749 +/- 0.00658          Peri.   52.45062 +/- 3.3
a   1.77682566 +/- 0.0187           Node   178.62480 +/- 0.09
e   0.0554140 +/- 0.00626           Incl.   21.60815 +/- 0.8
P   2.37/865.08d           H 20.53  G  0.15   U  9.4
q 1.67836459 +/- 0.0139    Q 1.87528674 +/- 0.028
From 9 observations 2023 Sept. 13-23; mean residual 0".25
Residuals in arcseconds: 
230913 F51  .06-  .05-    230913 F51  .12+  .15-    230923 I52  .32+  .60-    
230913 F51  .10+  .13-    230913 F51  .12-  .12+    230923 I52  .15+  .35+    
230913 F51  .04-  .20+    230923 I52  .22-  .23-    230923 I52  .25-  .48+    

Ephemerides (geocentric):
Date (UTC) HH   RA             Dec           delta  r     elong  mag " sig PA
---- --------  ------------   ------------  ------ ------ -----  --- --------
2023 09 24 14  23 30 30.691   -01 46 06.63  .83271 1.8309 171.5 21.8 .627  97
2023 09 24 15  23 30 28.619   -01 47 12.22  .83281 1.8309 171.4 21.8 .652  98
2023 09 24 16  23 30 26.548   -01 48 17.78  .83291 1.8310 171.4 21.9 .677  98
2023 09 24 17  23 30 24.478   -01 49 23.32  .83301 1.8310 171.3 21.9 .702  98
2023 09 24 18  23 30 22.410   -01 50 28.85  .83312 1.8310 171.3 21.9 .728  98
2023 09 24 19  23 30 20.343   -01 51 34.35  .83322 1.8310 171.2 21.9 .754  98
2023 09 24 20  23 30 18.278   -01 52 39.83  .83332 1.8311 171.2 21.9 .780  98
2023 09 24 21  23 30 16.215   -01 53 45.29  .83342 1.8311 171.1 21.9 .807  98
2023 09 24 22  23 30 14.153   -01 54 50.73  .83352 1.8311 171.1 21.9 .834  98
2023 09 24 23  23 30 12.093   -01 55 56.15  .83363 1.8311 171.0 21.9 .861  98
2023 09 25 00  23 30 10.034   -01 57 01.55  .83373 1.8312 171.0 21.9 .889  98
2023 09 25 01  23 30 07.977   -01 58 06.93  .83383 1.8312 170.9 21.9 .917  98
2023 09 25 02  23 30 05.921   -01 59 12.28  .83394 1.8312 170.8 21.9 .945  97
2023 09 25 03  23 30 03.867   -02 00 17.62  .83404 1.8312 170.8 21.9 .974  97
2023 09 25 04  23 30 01.815   -02 01 22.93  .83415 1.8313 170.7 21.9 1.00  97
2023 09 25 05  23 29 59.764   -02 02 28.22  .83425 1.8313 170.7 21.9 1.03  97
2023 09 25 06  23 29 57.714   -02 03 33.49  .83436 1.8313 170.6 21.9 1.06  97
2023 09 25 07  23 29 55.667   -02 04 38.73  .83447 1.8313 170.6 21.9 1.09  97
2023 09 25 08  23 29 53.621   -02 05 43.96  .83457 1.8314 170.5 21.9 1.12  97
2023 09 25 09  23 29 51.576   -02 06 49.16  .83468 1.8314 170.5 21.9 1.15  97
2023 09 25 10  23 29 49.533   -02 07 54.34  .83479 1.8314 170.4 21.9 1.18  97
2023 09 25 11  23 29 47.492   -02 08 59.50  .83490 1.8314 170.4 21.9 1.22  96
2023 09 25 12  23 29 45.453   -02 10 04.63  .83501 1.8315 170.3 21.9 1.25  96
2023 09 25 13  23 29 43.415   -02 11 09.74  .83512 1.8315 170.2 21.9 1.28  96
2023 09 25 14  23 29 41.379   -02 12 14.83  .83523 1.8315 170.2 21.9 1.31  96
2023 09 25 15  23 29 39.344   -02 13 19.90  .83534 1.8315 170.1 21.9 1.35  96
2023 09 25 16  23 29 37.311   -02 14 24.94  .83545 1.8316 170.1 21.9 1.38  96
2023 09 25 17  23 29 35.280   -02 15 29.96  .83556 1.8316 170.0 21.9 1.41  95
2023 09 25 18  23 29 33.250   -02 16 34.96  .83567 1.8316 170.0 21.9 1.45  95
2023 09 25 19  23 29 31.222   -02 17 39.93  .83578 1.8316 169.9 21.9 1.48  95
2023 09 25 20  23 29 29.196   -02 18 44.88  .83589 1.8316 169.9 21.9 1.52  95
2023 09 25 21  23 29 27.172   -02 19 49.80  .83601 1.8317 169.8 21.9 1.55  95
2023 09 25 22  23 29 25.149   -02 20 54.70  .83612 1.8317 169.8 21.9 1.59  95
2023 09 25 23  23 29 23.128   -02 21 59.58  .83623 1.8317 169.7 21.9 1.62  94
2023 09 26 00  23 29 21.109   -02 23 04.43  .83635 1.8317 169.7 21.9 1.66  94
2023 09 26 01  23 29 19.091   -02 24 09.26  .83646 1.8318 169.6 21.9 1.70  94
2023 09 26 02  23 29 17.075   -02 25 14.07  .83658 1.8318 169.5 21.9 1.74  94
2023 09 26 03  23 29 15.061   -02 26 18.85  .83669 1.8318 169.5 21.9 1.77  94
2023 09 26 04  23 29 13.048   -02 27 23.60  .83681 1.8318 169.4 21.9 1.81  93
2023 09 26 05  23 29 11.038   -02 28 28.33  .83693 1.8319 169.4 21.9 1.85  93
2023 09 26 06  23 29 09.029   -02 29 33.04  .83704 1.8319 169.3 21.9 1.89  93
2023 09 26 07  23 29 07.022   -02 30 37.72  .83716 1.8319 169.3 21.9 1.93  93
2023 09 26 08  23 29 05.016   -02 31 42.38  .83728 1.8319 169.2 21.9 1.97  93
2023 09 26 09  23 29 03.013   -02 32 47.01  .83740 1.8320 169.2 21.9 2.01  93
2023 09 26 10  23 29 01.011   -02 33 51.61  .83752 1.8320 169.1 21.9 2.05  92
2023 09 26 11  23 28 59.011   -02 34 56.19  .83764 1.8320 169.1 21.9 2.09  92
2023 09 26 12  23 28 57.013   -02 36 00.75  .83776 1.8320 169.0 21.9 2.13  92
2023 09 26 13  23 28 55.016   -02 37 05.28  .83788 1.8321 168.9 21.9 2.17  92